Precipitable_Water
1.30 1.43 1.24 1.06 0.97 0.99 1.02 1.04 1.09 1.08 1.05 1.06 1.09 1.14 1.18 1.12 1.01 1.02 1.02 1.07 1.12 1.20 1.22 1.12 1.15 1.25 1.31 1.33 1.36 1.45 1.50 1.50 1.55 1.58 1.55 1.57 1.56 1.57 1.63 1.69 1.67 1.64 1.63
1.24 1.23 1.26 1.16 1.00 1.01 1.08 1.09 1.12 1.07 1.05 1.08 1.11 1.16 1.20 1.14 1.05 1.04 1.02 1.08 1.14 1.24 1.27 1.24 1.25 1.28 1.30 1.34 1.39 1.49 1.55 1.57 1.55 1.54 1.56 1.55 1.56 1.61 1.68 1.64 1.61 1.64 1.65
1.23 1.22 1.22 1.20 1.08 1.02 1.08 1.12 1.13 1.09 1.06 1.09 1.11 1.15 1.19 1.16 1.11 1.11 1.10 1.11 1.13 1.18 1.22 1.24 1.28 1.36 1.39 1.35 1.46 1.50 1.54 1.58 1.57 1.55 1.54 1.53 1.61 1.63 1.67 1.62 1.60 1.64 1.68
1.24 1.32 1.29 1.28 1.18 1.08 1.08 1.15 1.15 1.13 1.09 1.11 1.14 1.15 1.20 1.16 1.12 1.13 1.16 1.17 1.19 1.21 1.23 1.28 1.31 1.37 1.44 1.44 1.47 1.50 1.53 1.56 1.53 1.58 1.59 1.56 1.61 1.61 1.60 1.59 1.60 1.65 1.67
1.07 1.32 1.41 1.39 1.27 1.18 1.12 1.16 1.17 1.15 1.10 1.13 1.15 1.15 1.20 1.18 1.15 1.15 1.15 1.20 1.25 1.24 1.23 1.26 1.30 1.39 1.39 1.41 1.46 1.48 1.52 1.48 1.50 1.56 1.59 1.58 1.52 1.57 1.58 1.54 1.62 1.67 1.66
1.10 1.31 1.43 1.37 1.32 1.25 1.17 1.20 1.22 1.21 1.14 1.17 1.17 1.15 1.19 1.18 1.15 1.14 1.18 1.23 1.24 1.22 1.23 1.32 1.38 1.37 1.34 1.38 1.44 1.45 1.46 1.45 1.48 1.50 1.56 1.62 1.47 1.56 1.54 1.55 1.60 1.65 1.65
1.17 1.35 1.42 1.36 1.31 1.27 1.18 1.21 1.26 1.24 1.17 1.17 1.16 1.14 1.16 1.18 1.17 1.17 1.19 1.23 1.26 1.27 1.27 1.32 1.39 1.34 1.33 1.33 1.38 1.43 1.42 1.40 1.39 1.53 1.47 1.52 1.45 1.53 1.53 1.53 1.58 1.61 1.62
1.15 1.32 1.40 1.47 1.33 1.27 1.20 1.20 1.25 1.25 1.20 1.18 1.20 1.19 1.19 1.19 1.18 1.18 1.20 1.23 1.26 1.29 1.32 1.34 1.34 1.33 1.33 1.32 1.33 1.35 1.39 1.43 1.43 1.31 1.47 1.50 1.44 1.51 1.54 1.53 1.59 1.63 1.64
1.10 1.21 1.34 1.46 1.48 1.35 1.26 1.23 1.26 1.26 1.21 1.18 1.19 1.20 1.19 1.19 1.19 1.18 1.23 1.26 1.26 1.28 1.34 1.38 1.40 1.38 1.33 1.31 1.31 1.30 1.34 1.42 1.39 1.57 1.67 1.54 1.41 1.45 1.50 1.55 1.61 1.62 1.62
1.05 1.14 1.19 1.33 1.48 1.44 1.32 1.25 1.27 1.28 1.24 1.21 1.17 1.17 1.15 1.19 1.18 1.17 1.21 1.26 1.28 1.30 1.33 1.35 1.35 1.40 1.38 1.30 1.29 1.27 1.27 1.33 1.40 1.53 1.62 1.51 1.44 1.43 1.46 1.51 1.60 1.59 1.54
0.99 1.10 1.16 1.24 1.37 1.46 1.38 1.30 1.29 1.29 1.26 1.21 1.19 1.17 1.17 1.17 1.17 1.14 1.17 1.26 1.29 1.30 1.32 1.33 1.33 1.34 1.40 1.35 1.29 1.26 1.22 1.22 1.33 1.40 1.36 1.46 1.44 1.45 1.43 1.52 1.54 1.56 1.54
0.70 0.96 1.19 1.35 1.40 1.45 1.42 1.36 1.31 1.31 1.30 1.25 1.22 1.21 1.18 1.15 1.15 1.14 1.16 1.22 1.26 1.30 1.33 1.33 1.34 1.36 1.37 1.36 1.36 1.29 1.16 1.23 1.36 1.33 1.35 1.41 1.47 1.45 1.37 1.47 1.55 1.58 1.57
0.59 0.88 1.08 1.29 1.47 1.45 1.51 1.45 1.38 1.34 1.32 1.29 1.27 1.24 1.23 1.18 1.18 1.17 1.15 1.16 1.23 1.25 1.29 1.29 1.32 1.30 1.30 1.31 1.33 1.32 1.17 1.14 1.34 1.35 1.35 1.34 1.38 1.43 1.47 1.41 1.46 1.56 1.58
0.49 0.61 0.95 1.16 1.41 1.52 1.54 1.65 1.54 1.41 1.39 1.35 1.33 1.30 1.25 1.20 1.20 1.18 1.15 1.10 1.12 1.19 1.19 1.23 1.26 1.27 1.20 1.23 1.27 1.30 1.21 1.13 1.28 1.33 1.33 1.37 1.44 1.45 1.44 1.42 1.44 1.48 1.56
0.44 0.57 0.79 0.90 0.97 1.27 1.49 1.63 1.76 1.67 1.56 1.51 1.45 1.41 1.32 1.26 1.19 1.22 1.18 1.16 1.15 1.19 1.21 1.17 1.20 1.23 1.18 1.13 1.22 1.36 1.41 1.25 1.28 1.31 1.31 1.38 1.31 1.42 1.37 1.33 1.34 1.38 1.40
0.50 0.58 0.70 0.80 1.02 1.21 1.21 1.53 1.67 1.76 1.79 1.70 1.58 1.45 1.41 1.27 1.22 1.22 1.20 1.18 1.18 1.27 1.22 1.20 1.16 1.18 1.15 1.09 1.10 1.26 1.30 1.32 1.30 1.30 1.34 1.35 1.33 1.32 1.32 1.33 1.34 1.36 1.37
0.50 0.55 0.60 0.68 0.72 0.78 0.85 1.07 1.48 1.63 1.73 1.82 1.85 1.66 1.43 1.36 1.25 1.24 1.26 1.20 1.20 1.24 1.23 1.21 1.20 1.22 1.20 1.21 1.08 1.19 1.29 1.32 1.29 1.31 1.31 1.32 1.32 1.32 1.30 1.28 1.29 1.35 1.35
0.46 0.47 0.53 0.60 0.65 0.65 0.67 0.76 0.89 1.17 1.47 1.68 1.83 1.79 1.70 1.52 1.42 1.28 1.28 1.23 1.28 1.36 1.25 1.25 1.18 1.13 1.15 1.16 1.12 1.09 1.24 1.32 1.30 1.28 1.28 1.27 1.26 1.29 1.30 1.29 1.27 1.24 1.25
0.46 0.48 0.50 0.53 0.56 0.61 0.62 0.67 0.74 0.84 1.08 1.41 1.64 1.71 1.74 1.81 1.65 1.49 1.34 1.33 1.33 1.37 1.28 1.30 1.26 1.19 1.10 1.10 1.12 1.09 1.15 1.27 1.26 1.28 1.25 1.26 1.27 1.25 1.26 1.29 1.29 1.31 1.27
0.48 0.49 0.48 0.48 0.50 0.53 0.56 0.59 0.63 0.70 0.84 1.05 1.39 1.57 1.67 1.68 1.66 1.63 1.46 1.42 1.44 1.38 1.28 1.30 1.23 1.28 1.17 1.10 1.09 1.07 1.12 1.20 1.29 1.25 1.26 1.26 1.26 1.24 1.24 1.26 1.29 1.31 1.31
0.47 0.46 0.46 0.46 0.48 0.48 0.48 0.46 0.48 0.50 0.63 0.81 0.94 1.24 1.53 1.53 1.61 1.71 1.41 1.46 1.48 1.42 1.32 1.28 1.25 1.18 1.16 1.23 1.10 1.08 1.11 1.15 1.21 1.27 1.26 1.23 1.21 1.21 1.24 1.23 1.25 1.29 1.31
0.43 0.44 0.44 0.43 0.43 0.44 0.46 0.46 0.47 0.46 0.51 0.63 0.81 0.92 1.15 1.34 1.49 1.44 1.43 1.48 1.50 1.38 1.34 1.35 1.22 1.15 1.17 1.25 1.02 0.99 0.86 1.03 1.15 1.22 1.25 1.23 1.22 1.23 1.20 1.24 1.26 1.25 1.27
0.41 0.42 0.42 0.43 0.44 0.45 0.47 0.48 0.47 0.49 0.48 0.47 0.59 0.75 0.92 1.09 1.31 1.45 1.49 1.51 1.38 1.51 1.27 1.28 1.31 1.17 1.07 1.20 1.16 0.95 0.82 0.71 0.89 1.11 1.18 1.23 1.21 1.23 1.24 1.28 1.27 1.28 1.28
0.42 0.44 0.45 0.45 0.46 0.47 0.48 0.47 0.46 0.43 0.41 0.45 0.46 0.59 0.73 0.92 1.03 1.22 1.41 1.43 1.35 1.54 1.39 1.25 1.32 1.27 1.25 1.08 1.20 1.10 1.00 0.87 0.75 0.74 1.08 1.14 1.18 1.15 1.22 1.30 1.30 1.33 1.33
0.48 0.47 0.47 0.46 0.45 0.45 0.47 0.49 0.47 0.45 0.47 0.47 0.47 0.44 0.56 0.73 0.89 1.00 1.20 1.35 1.50 1.50 1.55 1.46 1.25 1.30 1.36 1.23 1.07 0.99 1.03 0.98 0.95 0.83 0.75 0.92 1.15 1.18 1.27 1.31 1.32 1.33 1.36
0.45 0.44 0.43 0.42 0.42 0.45 0.46 0.47 0.47 0.47 0.46 0.45 0.45 0.44 0.44 0.51 0.75 0.89 0.98 1.15 1.32 1.45 1.46 1.44 1.54 1.46 1.38 1.45 1.26 1.14 1.03 0.93 0.86 0.90 0.82 0.91 0.94 1.07 1.23 1.30 1.29 1.31 1.37
Wind_Speed
8 9 10 12 11 10 9 8 6 5 4 4 3 3 3 2 1 2 2 3 3 4 4 3 3 3 2 2 1 1 1 2 1 1 1 1 1 2 2 2 2 2 3
10 11 12 14 14 12 11 9 8 7 5 5 5 4 4 3 3 2 3 3 4 4 4 4 4 4 3 3 2 1 1 1 1 1 1 1 1 1 2 1 1 2 4
12 12 12 14 15 14 13 11 10 8 7 7 6 5 5 4 4 4 3 4 5 5 6 6 5 5 4 3 3 2 1 0 0 1 0 0 1 1 1 1 3 3 5
12 13 14 15 17 16 14 13 11 10 9 8 8 7 7 6 6 5 5 5 5 6 6 6 6 6 5 4 4 3 2 2 2 1 1 1 1 1 2 2 3 4 5
14 14 15 16 18 17 16 14 13 12 11 10 9 9 8 7 7 7 7 7 7 7 7 7 7 7 6 5 5 4 3 3 2 2 2 3 3 2 3 3 3 5 6
15 15 15 17 19 19 17 16 15 13 12 11 10 10 9 8 8 8 8 7 7 8 8 8 8 7 7 6 6 5 5 4 3 3 2 1 1 3 3 4 5 6 6
15 15 16 16 20 21 19 18 17 15 14 13 12 11 10 9 9 9 9 9 8 8 8 8 9 9 8 7 7 6 6 5 4 3 3 3 2 3 4 5 6 6 6
14 16 16 16 20 22 22 20 19 18 16 15 14 13 12 11 11 11 10 10 9 9 9 9 9 9 9 8 8 7 7 7 4 4 4 3 3 4 4 5 6 6 6
16 17 17 18 20 23 24 23 21 20 18 17 16 15 14 13 13 12 11 11 10 10 10 10 10 10 10 10 9 9 8 8 7 6 5 4 3 4 5 6 7 7 7
18 18 19 21 22 24 26 26 24 23 21 20 19 18 17 15 15 14 13 12 11 11 11 10 10 10 10 11 10 10 10 9 8 7 6 6 5 5 6 7 8 8 8
21 22 22 22 23 24 27 28 27 26 24 23 21 20 19 17 16 15 14 13 13 12 12 11 11 11 11 11 11 12 11 11 9 8 8 6 6 5 7 8 9 9 9
24 24 24 24 25 25 28 30 29 28 27 25 24 23 22 20 19 17 16 15 15 14 13 13 12 12 12 12 12 12 13 12 10 10 9 10 9 8 8 9 10 11 11
24 23 24 25 26 27 28 30 32 31 30 29 27 26 25 23 21 20 18 17 15 15 14 14 14 13 13 13 13 14 14 15 13 13 12 11 11 10 9 10 11 12 13
23 24 25 25 26 27 30 31 32 33 33 32 31 29 28 26 24 22 21 19 18 16 15 15 15 15 14 14 14 13 14 15 15 14 13 13 12 11 11 11 11 13 14
21 22 24 25 26 28 29 32 32 33 35 35 35 33 31 29 28 26 24 23 20 18 17 16 15 15 15 15 15 15 14 14 15 14 13 13 12 12 11 11 11 12 14
18 19 18 20 23 26 28 30 34 35 34 35 36 36 35 33 31 29 27 26 24 22 20 19 17 16 16 16 16 15 15 14 15 15 14 14 13 13 12 12 12 13 15
21 20 21 22 22 23 25 27 30 33 36 35 35 38 36 35 34 33 31 29 27 25 23 21 19 18 17 17 17 16 16 16 16 15 15 15 15 14 13 14 14 14 16
24 24 25 25 26 25 26 28 30 31 34 37 38 35 39 41 36 35 34 32 29 28 26 24 22 20 19 19 19 18 17 18 17 17 16 16 16 15 15 15 15 16 17
28 27 28 29 29 30 29 30 31 33 33 35 38 39 39 39 39 36 36 34 33 31 29 27 26 24 22 21 21 21 20 20 20 19 18 18 18 17 17 17 17 17 17
31 31 30 31 33 34 34 34 34 35 35 35 36 39 41 41 42 42 36 37 36 35 32 31 29 28 26 24 23 23 23 22 22 21 21 21 20 19 18 18 19 19 19
32 34 34 35 36 37 38 37 38 38 39 39 39 38 40 42 42 42 43 41 41 40 37 34 33 31 29 27 25 24 24 25 25 24 23 23 23 22 20 20 19 20 20
34 35 37 38 39 39 39 40 40 40 41 42 41 41 42 43 44 45 45 46 42 42 41 39 38 35 33 32 28 25 23 25 26 27 27 25 25 24 23 22 21 21 21
36 37 38 40 41 40 41 42 42 43 43 43 43 43 42 42 43 46 48 50 48 46 44 45 42 40 37 36 34 29 25 24 25 27 29 28 27 27 26 25 23 22 22
36 38 39 40 42 43 42 42 43 44 44 44 45 46 46 45 44 45 49 49 50 48 49 48 47 45 43 40 38 37 30 25 24 24 26 29 29 29 28 27 25 24 23
37 39 40 41 41 42 43 44 44 46 46 47 48 49 50 49 47 47 46 51 50 50 50 50 50 51 49 45 42 37 34 29 26 24 24 25 28 29 29 28 27 26 25
39 40 41 41 40 40 40 42 44 46 47 48 49 50 50 52 51 50 48 48 52 50 50 50 52 55 55 48 43 40 37 34 29 26 24 25 26 27 30 30 29 28 27
Wind_Direction
269 250 234 230 229 228 229 231 235 240 246 244 244 246 254 259 269 245 220 206 200 198 196 198 205 213 225 247 269 290 323 338 357 18 47 94 104 102 108 111 107 95 113
263 252 244 234 228 228 230 231 233 238 244 245 248 249 252 257 255 242 231 220 215 214 217 220 226 234 240 246 248 244 312 12 24 59 99 112 124 139 143 146 131 126 132
266 253 245 236 228 228 229 231 233 238 242 243 244 245 251 257 258 252 241 231 227 227 230 232 236 240 240 239 231 231 251 237 145 107 179 176 184 183 185 165 150 142 144
268 255 247 238 229 227 228 231 234 238 242 242 243 244 248 256 255 254 249 243 238 235 236 237 238 240 239 234 225 240 243 222 203 219 273 259 241 211 195 176 163 155 154
265 255 250 240 229 226 228 230 233 237 239 239 242 242 246 254 254 254 253 250 248 246 243 242 240 239 240 233 235 243 232 219 222 275 257 283 233 221 199 187 176 161 157
267 253 252 244 229 227 230 232 233 237 236 238 238 239 244 249 250 252 253 253 251 250 248 245 242 241 239 237 239 238 231 224 254 270 256 143 258 220 206 196 179 169 166
269 256 253 246 230 229 232 234 235 237 237 239 238 239 242 245 250 251 249 250 252 252 249 246 244 242 239 240 239 236 234 233 257 252 242 270 262 223 209 195 189 184 178
270 261 253 248 235 232 234 236 236 237 238 239 240 240 242 245 249 249 249 249 250 249 248 248 246 243 242 240 239 240 235 239 251 225 256 270 260 230 212 201 198 191 186
272 263 255 251 243 237 236 236 237 237 238 240 240 241 243 246 248 248 247 247 248 248 246 247 247 246 245 241 240 239 236 239 251 250 245 271 257 230 220 211 204 200 200
273 265 258 254 249 243 238 237 237 238 239 241 241 242 243 246 247 246 245 245 245 246 245 244 246 246 245 244 240 239 238 239 245 262 254 273 255 243 233 222 215 215 215
271 266 260 255 253 246 239 238 238 239 240 241 242 242 242 245 245 245 244 243 245 245 244 245 245 246 246 246 243 241 242 240 243 248 254 258 254 254 245 234 227 226 227
273 266 261 256 253 249 241 239 238 240 241 242 242 243 243 242 242 242 242 243 245 246 245 246 246 247 247 246 245 242 244 240 246 252 257 251 252 261 255 243 236 233 234
272 266 261 258 254 251 246 241 240 240 241 242 242 243 243 241 241 240 241 242 243 243 245 246 246 247 247 247 246 245 246 244 248 255 259 251 253 262 260 253 244 239 238
275 269 262 259 256 254 249 244 242 241 242 242 242 241 242 241 240 240 242 239 239 240 243 246 248 248 248 247 246 246 247 246 250 256 252 254 255 261 263 253 249 244 241
279 271 264 261 258 255 252 247 246 244 244 242 241 241 241 241 239 239 240 237 236 238 241 244 249 249 248 247 246 245 246 246 248 251 252 250 258 261 262 254 252 250 247
275 280 274 272 266 257 254 253 248 247 246 244 242 240 240 240 238 237 238 237 237 238 241 243 247 249 249 247 246 248 244 246 247 248 251 253 255 259 259 253 257 257 256
273 276 280 276 273 267 262 257 254 251 249 247 241 239 239 237 238 236 236 236 237 237 240 242 245 247 249 246 244 245 243 247 249 251 250 252 255 257 258 256 261 264 263
277 276 276 276 274 271 267 261 257 256 253 249 249 248 244 237 236 235 234 235 236 236 238 241 243 245 247 246 245 244 245 246 249 250 251 251 254 256 259 261 265 268 268
279 281 276 274 274 272 269 265 261 258 257 254 250 248 248 243 241 234 233 235 236 237 237 239 242 243 245 247 246 245 246 247 249 251 251 251 253 257 260 263 267 271 271
281 279 278 275 273 273 269 265 263 260 257 255 253 250 248 248 246 237 239 236 235 236 238 239 239 241 245 246 247 247 247 246 247 250 252 253 252 256 260 264 267 271 272
284 280 278 277 276 274 271 269 264 262 259 256 254 253 251 248 246 247 245 240 237 238 239 239 240 240 243 244 247 250 250 248 247 248 252 254 254 255 259 263 268 271 271
285 283 281 279 278 275 271 267 264 261 258 256 253 252 252 251 249 247 245 236 239 239 239 240 239 241 243 241 245 247 252 253 250 248 250 253 254 256 258 261 266 270 271
285 285 284 281 278 275 272 268 264 261 258 256 253 252 251 251 250 246 243 244 243 240 240 240 240 240 242 241 241 244 249 255 252 249 249 251 253 256 258 259 264 267 270
289 289 287 282 279 276 273 269 265 262 259 256 254 252 251 251 251 250 247 245 241 242 240 240 241 241 239 239 238 239 246 250 252 253 252 251 252 255 256 257 261 264 268
292 292 289 286 282 278 273 269 266 262 259 257 255 254 252 250 250 249 249 246 245 243 242 241 240 241 238 237 235 236 240 245 250 253 254 254 253 254 254 255 260 263 265
295 294 291 288 284 280 275 271 267 263 261 259 256 255 253 250 248 249 249 248 245 245 245 244 243 242 237 229 232 234 237 240 245 251 256 255 255 257 253 255 258 261 264